Kissimmee, FL

1:24 PM EST on November 21, 2019 (GMT -0500)
Kissimmee Municipal

Weather History for KISM - August, 2019

Change the Weather History Date:

Thursday, August 15, 2019

  Actual Average Record
Temperature  
Mean Temperature 82 °F -  
Max Temperature 89 °F 90 °F 95 °F (1963)
Min Temperature 75 °F 72 °F 70 °F (1961)
Cooling Degree Days 17    
Growing Degree Days 32 (Base 50)    
Moisture  
Dew Point 76 °F    
Average Humidity 86    
Maximum Humidity 97    
Minimum Humidity 65    
Precipitation  
Precipitation 0.00 in - - ()
Sea Level Pressure  
Sea Level Pressure 30.02 in    
Wind  
Wind Speed 7 mph (SSW)    
Max Wind Speed 15 mph    
Max Gust Speed -    
Visibility 10 miles    
Events Rain , Thunderstorm    
Averages and records for this station are not official NWS values.
T = Trace of Precipitation, MM = Missing Value Source: NWS Daily Summary

Daily Weather History Graph

Daily Weather History Graph

Search for Another Location

Airport or City:

Astronomy

Aug. 15, 2019 Rise Set
Actual Time 6:55 AM EDT 8:04 PM EDT
Civil Twilight 6:30 AM EDT 8:29 PM EDT
Nautical Twilight 6:01 AM EDT 8:58 PM EDT
Astronomical Twilight 5:31 AM EDT 9:28 PM EDT
Moon 8:30 PM EDT (8/15) 6:53 AM EDT (8/15)
Length of Visible Light 13h 58m
Length of Day
13h 09m
Full, 100% of the Moon is Illuminated
Aug 15
Full
Aug 23
Last Quarter
Aug 30
New
Sep 5
First Quarter
Sep 14
Full

Hourly Weather History & Observations

Time (EDT) Temp. Heat Index Dew Point Humidity Pressure Visibility Wind Dir Wind Speed Gust Speed Precip Events Conditions
12:56 AM 78.1 °F - 75.0 °F 90% 30.02 in 10.0 mi SW 10.4 mph - N/A   Partly Cloudy
1:56 AM 77.0 °F - 75.0 °F 94% 30.01 in 10.0 mi WSW 6.9 mph - N/A   Mostly Cloudy
2:56 AM 77.0 °F - 75.0 °F 94% 29.99 in 10.0 mi SW 3.5 mph - N/A   Clear
3:56 AM 77.0 °F - 75.0 °F 94% 29.97 in 10.0 mi SW 3.5 mph - N/A   Clear
4:56 AM 75.9 °F - 75.0 °F 97% 29.97 in 10.0 mi South 6.9 mph - N/A   Clear
5:56 AM 75.9 °F - 75.0 °F 97% 29.99 in 10.0 mi SW 4.6 mph - N/A   Clear
6:56 AM 75.9 °F - 75.0 °F 97% 30.00 in 10.0 mi SSE 5.8 mph - N/A   Clear
7:56 AM 78.1 °F - 75.0 °F 90% 30.01 in 10.0 mi South 4.6 mph - N/A   Clear
8:36 AM 80.6 °F 86.2 °F 75.2 °F 84% 30.02 in 10.0 mi SSE 5.8 mph - N/A   Mostly Cloudy
8:54 AM 80.6 °F 86.2 °F 75.2 °F 84% 30.02 in 10.0 mi SSE 4.6 mph - N/A   Mostly Cloudy
8:56 AM 80.1 °F 85.4 °F 75.9 °F 87% 30.03 in 10.0 mi SSE 4.6 mph - N/A   Mostly Cloudy
9:53 AM 80.6 °F 86.2 °F 75.2 °F 84% 30.03 in 10.0 mi Calm Calm - N/A   Scattered Clouds
9:56 AM 81.0 °F 87.3 °F 75.9 °F 85% 30.04 in 10.0 mi Calm Calm - N/A   Scattered Clouds
10:03 AM 80.6 °F 87.1 °F 77.0 °F 89% 30.04 in 10.0 mi South 3.5 mph - N/A   Overcast
10:30 AM 82.4 °F 90.9 °F 77.0 °F 84% 30.04 in 10.0 mi SW 8.1 mph - N/A   Scattered Clouds
10:56 AM 82.9 °F 91.8 °F 77.0 °F 82% 30.05 in 10.0 mi SW 5.8 mph - N/A   Scattered Clouds
11:56 AM 84.9 °F 95.3 °F 77.0 °F 77% 30.03 in 10.0 mi SW 4.6 mph - N/A   Mostly Cloudy
12:18 PM 87.8 °F 99.7 °F 77.0 °F 70% 30.03 in 10.0 mi SW 8.1 mph - N/A   Mostly Cloudy
12:34 PM 87.8 °F 97.6 °F 75.2 °F 66% 30.02 in 10.0 mi SSW 8.1 mph - N/A   Scattered Clouds
12:56 PM 89.1 °F 100.2 °F 75.9 °F 65% 30.02 in 10.0 mi SW 15.0 mph - N/A   Scattered Clouds
1:54 PM 84.2 °F 96.1 °F 78.8 °F 84% 30.01 in 10.0 mi SSE 8.1 mph - N/A   Mostly Cloudy
1:56 PM 84.0 °F 96.0 °F 79.0 °F 85% 30.01 in 10.0 mi SSE 8.1 mph - N/A   Overcast
2:20 PM 86.0 °F 99.3 °F 78.8 °F 79% 30.00 in 10.0 mi South 11.5 mph - N/A   Mostly Cloudy
2:42 PM 78.8 °F - 75.2 °F 89% 30.01 in 10.0 mi WSW 12.7 mph - N/A Rain , Thunderstorm Light Thunderstorms and Rain
2:56 PM 77.0 °F - 75.0 °F 94% 30.02 in 10.0 mi West 11.5 mph - N/A Rain , Thunderstorm Light Rain
3:12 PM 77.0 °F - 75.2 °F 94% 30.02 in 10.0 mi West 6.9 mph - N/A   Overcast
3:20 PM 78.8 °F - 75.2 °F 89% 30.02 in 10.0 mi West 8.1 mph - N/A   Mostly Cloudy
3:27 PM 78.8 °F - 75.2 °F 89% 30.02 in 10.0 mi West 8.1 mph - N/A   Scattered Clouds
3:56 PM 79.0 °F - 75.0 °F 88% 30.01 in 10.0 mi WSW 5.8 mph - N/A   Clear
4:56 PM 81.0 °F 86.7 °F 75.0 °F 82% 30.01 in 10.0 mi SSW 6.9 mph - N/A   Scattered Clouds
5:56 PM 82.0 °F 89.4 °F 75.9 °F 82% 30.01 in 10.0 mi SSW 6.9 mph - N/A   Partly Cloudy
6:56 PM 80.1 °F 85.8 °F 77.0 °F 90% 30.00 in 10.0 mi SSE 10.4 mph - N/A   Clear
7:56 PM 79.0 °F - 75.9 °F 90% 30.01 in 10.0 mi South 11.5 mph - N/A   Partly Cloudy
8:56 PM 79.0 °F - 73.9 °F 84% 30.01 in 10.0 mi SSW 9.2 mph - N/A   Partly Cloudy
9:56 PM 77.0 °F - 73.9 °F 90% 30.02 in 10.0 mi SW 5.8 mph - N/A   Clear
10:56 PM 77.0 °F - 73.0 °F 88% 30.04 in 10.0 mi South 5.8 mph - N/A   Clear
11:56 PM 77.0 °F - 73.0 °F 88% 30.04 in 10.0 mi South 6.9 mph - N/A   Clear